| time (UTC) | temp F | wind direction | speed MPH | gust MPH | rain 1hr in | rain 24hr in | rain mn in | humidity % | barometer mb |
| 20260831060848 | 60 | 315 | 1.0 | 4.0 | 0.19 | 0.19 | 0.25 | 92 | 1018.6 |
| 20260831055948 | 60 | 333 | 1.0 | 13.0 | 0.18 | 0.18 | 0.19 | 90 | 1018.9 |
| 20260831055048 | 60 | 315 | 4.0 | 13.0 | 0.01 | 0.01 | 0.04 | 90 | 1018.8 |
| 20260831054148 | 59 | 317 | 4.0 | 7.0 | 0.00 | 0.00 | 0.00 | 90 | 1018.1 |
| 20260831053248 | 58 | 314 | 0.0 | 1.0 | 0.00 | 0.00 | 0.00 | 89 | 1017.0 |
| 20260831052348 | 58 | 0 | 0.0 | 0.0 | 0.00 | 0.00 | 0.00 | 89 | 1017.0 |
| 20260831051448 | 59 | 0 | 0.0 | 0.0 | 0.00 | 0.00 | 0.00 | 89 | 1017.0 |
| 20260831045648 | 58 | 0 | 0.0 | 0.0 | 0.00 | 0.00 | 0.00 | 89 | 1016.9 |
| 20260831044749 | 57 | 0 | 0.0 | 0.0 | 0.00 | 0.00 | 0.00 | 88 | 1017.0 |
| 20260831043848 | 57 | 0 | 0.0 | 0.0 | 0.00 | 0.00 | 0.00 | 88 | 1017.1 |
| 20260831042948 | 56 | 0 | 0.0 | 0.0 | 0.00 | 0.00 | 0.00 | 87 | 1017.1 |
| 20260831042048 | 56 | 0 | 0.0 | 0.0 | 0.00 | 0.00 | 0.00 | 87 | 1017.0 |
| 20260831041148 | 56 | 0 | 0.0 | 0.0 | 0.00 | 0.00 | 0.00 | 87 | 1017.1 |
| 20260831040248 | 56 | 0 | 0.0 | 0.0 | 0.00 | 0.00 | 0.00 | 87 | 1017.1 |
| 20260831035348 | 56 | 181 | 0.0 | 1.0 | 0.00 | 0.00 | 0.00 | 86 | 1017.1 |
| 20260831034448 | 56 | 0 | 0.0 | 0.0 | 0.00 | 0.00 | 0.00 | 86 | 1017.3 |
| 20260831032648 | 56 | 0 | 0.0 | 0.0 | 0.00 | 0.00 | 0.00 | 86 | 1017.4 |
| 20260831031748 | 56 | 1 | 0.0 | 2.0 | 0.00 | 0.00 | 0.00 | 85 | 1017.7 |
| 20260831030848 | 56 | 1 | 0.0 | 2.0 | 0.00 | 0.00 | 0.00 | 85 | 1017.8 |
| 20260831025948 | 56 | 1 | 0.0 | 2.0 | 0.00 | 0.00 | 0.00 | 85 | 1017.6 |
| 20260831025048 | 56 | 181 | 0.0 | 2.0 | 0.00 | 0.00 | 0.00 | 85 | 1017.9 |
| 20260831024148 | 56 | 181 | 0.0 | 2.0 | 0.00 | 0.00 | 0.00 | 84 | 1018.0 |
| 20260831023248 | 56 | 0 | 0.0 | 0.0 | 0.00 | 0.00 | 0.00 | 84 | 1018.1 |
| 20260831022348 | 56 | 181 | 0.0 | 1.0 | 0.00 | 0.00 | 0.00 | 84 | 1018.2 |
| 20260831021448 | 56 | 0 | 0.0 | 0.0 | 0.00 | 0.00 | 0.00 | 84 | 1018.2 |
| 20260831015648 | 56 | 181 | 0.0 | 1.0 | 0.00 | 0.00 | 0.00 | 83 | 1018.2 |
| 20260831014748 | 56 | 181 | 0.0 | 1.0 | 0.00 | 0.00 | 0.00 | 82 | 1018.2 |
| 20260831013848 | 56 | 181 | 0.0 | 2.0 | 0.00 | 0.00 | 0.00 | 81 | 1018.3 |
| 20260831012048 | 55 | 0 | 0.0 | 0.0 | 0.00 | 0.00 | 0.00 | 80 | 1018.3 |
| 20260831011148 | 55 | 0 | 0.0 | 0.0 | 0.00 | 0.00 | 0.00 | 80 | 1018.3 |
| 20260831010248 | 55 | 0 | 0.0 | 0.0 | 0.00 | 0.00 | 0.00 | 78 | 1018.3 |
| 20260831005348 | 55 | 0 | 0.0 | 0.0 | 0.00 | 0.00 | 0.00 | 78 | 1018.4 |
| 20260831004448 | 55 | 0 | 0.0 | 0.0 | 0.00 | 0.00 | 0.00 | 77 | 1018.4 |
| 20260831003547 | 55 | 181 | 0.0 | 1.0 | 0.00 | 0.00 | 0.00 | 77 | 1018.5 |
| 20260831002648 | 55 | 0 | 0.0 | 0.0 | 0.00 | 0.00 | 0.00 | 75 | 1018.6 |
| 20260831001747 | 55 | 0 | 0.0 | 0.0 | 0.00 | 0.00 | 0.00 | 75 | 1018.6 |
| 20260831000848 | 55 | 0 | 0.0 | 0.0 | 0.00 | 0.00 | 0.00 | 74 | 1018.8 |
| 20260830235948 | 55 | 0 | 0.0 | 0.0 | 0.00 | 0.00 | 0.00 | 73 | 1018.7 |
| 20260830234147 | 56 | 0 | 0.0 | 0.0 | 0.00 | 0.00 | 0.00 | 73 | 1018.6 |
| 20260830233247 | 56 | 181 | 0.0 | 1.0 | 0.00 | 0.00 | 0.00 | 72 | 1018.6 |
| 20260830231448 | 56 | 0 | 0.0 | 0.0 | 0.00 | 0.00 | 0.00 | 71 | 1018.7 |
| 20260830230548 | 56 | 0 | 0.0 | 0.0 | 0.00 | 0.00 | 0.00 | 70 | 1018.7 |
| 20260830225648 | 56 | 0 | 0.0 | 0.0 | 0.00 | 0.00 | 0.00 | 69 | 1018.8 |
| 20260830224747 | 56 | 0 | 0.0 | 0.0 | 0.00 | 0.37 | 0.00 | 68 | 1018.8 |
| 20260830223847 | 56 | 181 | 0.0 | 1.0 | 0.00 | 0.37 | 0.00 | 68 | 1018.9 |
| 20260830222948 | 56 | 181 | 0.0 | 1.0 | 0.00 | 0.37 | 0.00 | 67 | 1018.9 |
| 20260830220247 | 57 | 181 | 0.0 | 1.0 | 0.00 | 0.37 | 0.00 | 64 | 1018.9 |
| 20260830215348 | 57 | 181 | 0.0 | 1.0 | 0.00 | 0.37 | 0.00 | 64 | 1018.9 |
| 20260830214447 | 57 | 181 | 0.0 | 1.0 | 0.00 | 0.37 | 0.00 | 63 | 1018.9 |
| 20260830213547 | 57 | 0 | 0.0 | 0.0 | 0.00 | 0.37 | 0.00 | 61 | 1018.9 |
| 20260830212647 | 58 | 0 | 0.0 | 0.0 | 0.00 | 0.37 | 0.00 | 61 | 1018.8 |
| 20260830211748 | 58 | 0 | 0.0 | 0.0 | 0.00 | 0.37 | 0.00 | 59 | 1018.9 |
| 20260830210847 | 58 | 0 | 0.0 | 0.0 | 0.00 | 0.37 | 0.00 | 58 | 1018.9 |
| 20260830204148 | 59 | 0 | 0.0 | 0.0 | 0.00 | 0.37 | 0.00 | 55 | 1019.1 |
| 20260830203247 | 59 | 181 | 0.0 | 1.0 | 0.00 | 0.37 | 0.00 | 54 | 1019.0 |
| 20260830201447 | 60 | 0 | 0.0 | 0.0 | 0.00 | 0.37 | 0.00 | 52 | 1018.9 |
| 20260830200547 | 60 | 0 | 0.0 | 0.0 | 0.00 | 0.37 | 0.00 | 51 | 1019.0 |
| 20260830195647 | 60 | 181 | 0.0 | 1.0 | 0.00 | 0.37 | 0.00 | 50 | 1019.1 |
| 20260830194747 | 61 | 181 | 0.0 | 2.0 | 0.00 | 0.37 | 0.00 | 48 | 1019.1 |
| 20260830193847 | 61 | 181 | 0.0 | 1.0 | 0.00 | 0.37 | 0.00 | 45 | 1019.0 |
| 20260830192947 | 62 | 181 | 0.0 | 1.0 | 0.00 | 0.37 | 0.00 | 43 | 1019.0 |
| 20260830192047 | 62 | 181 | 0.0 | 2.0 | 0.00 | 0.37 | 0.00 | 42 | 1019.0 |
| 20260830190247 | 63 | 181 | 0.0 | 2.0 | 0.00 | 0.37 | 0.00 | 39 | 1018.9 |
| 20260830184447 | 64 | 181 | 0.0 | 2.0 | 0.00 | 0.37 | 0.00 | 36 | 1018.5 |
| 20260830183548 | 65 | 181 | 0.0 | 2.0 | 0.00 | 0.37 | 0.00 | 34 | 1018.6 |
| 20260830182647 | 65 | 181 | 0.0 | 1.0 | 0.00 | 0.37 | 0.00 | 33 | 1018.5 |
| 20260830181747 | 66 | 181 | 0.0 | 2.0 | 0.00 | 0.37 | 0.00 | 32 | 1018.4 |
| 20260830180847 | 66 | 232 | 0.0 | 2.0 | 0.00 | 0.37 | 0.00 | 31 | 1018.5 |
| 20260830175947 | 67 | 270 | 0.0 | 2.0 | 0.00 | 0.37 | 0.00 | 30 | 1018.2 |
| 20260830175048 | 68 | 270 | 0.0 | 1.0 | 0.00 | 0.37 | 0.00 | 28 | 1018.2 |
| 20260830174147 | 69 | 270 | 0.0 | 1.0 | 0.00 | 0.37 | 0.00 | 25 | 1018.1 |
| 20260830173247 | 70 | 270 | 0.0 | 1.0 | 0.00 | 0.37 | 0.00 | 23 | 1018.0 |
| 20260830172347 | 72 | 270 | 0.0 | 1.0 | 0.00 | 0.37 | 0.00 | 21 | 1018.0 |
| 20260830171447 | 73 | 270 | 0.0 | 1.0 | 0.00 | 0.37 | 0.00 | 19 | 1018.1 |
| 20260830170548 | 74 | 0 | 0.0 | 0.0 | 0.00 | 0.37 | 0.00 | 16 | 1018.0 |
| 20260830165647 | 74 | 270 | 0.0 | 1.0 | 0.00 | 0.37 | 0.00 | 15 | 1017.9 |
| 20260830164747 | 75 | 270 | 0.0 | 2.0 | 0.00 | 0.37 | 0.00 | 14 | 1018.1 |
| 20260830163847 | 75 | 184 | 0.0 | 2.0 | 0.00 | 0.37 | 0.00 | 13 | 1018.0 |
| 20260830162947 | 76 | 317 | 0.0 | 2.0 | 0.00 | 0.37 | 0.00 | 12 | 1018.0 |
| 20260830162047 | 76 | 338 | 0.0 | 2.0 | 0.00 | 0.37 | 0.00 | 13 | 1018.1 |
| 20260830161147 | 76 | 320 | 0.0 | 2.0 | 0.00 | 0.37 | 0.00 | 12 | 1018.0 |
| 20260830160248 | 76 | 314 | 0.0 | 4.0 | 0.00 | 0.37 | 0.00 | 12 | 1018.0 |
| 20260830155347 | 76 | 314 | 0.0 | 3.0 | 0.00 | 0.37 | 0.00 | 13 | 1018.1 |
| 20260830154447 | 76 | 315 | 0.0 | 3.0 | 0.00 | 0.00 | 0.00 | 13 | 1018.1 |
| 20260830153548 | 76 | 308 | 0.0 | 3.0 | 0.00 | 0.00 | 0.00 | 12 | 1017.9 |
| 20260830152647 | 77 | 325 | 0.0 | 3.0 | 0.00 | 0.00 | 0.00 | 13 | 1018.1 |
| 20260830151748 | 76 | 179 | 1.0 | 6.0 | 0.00 | 0.00 | 0.00 | 12 | 1018.1 |
| 20260830145947 | 77 | 280 | 2.0 | 6.0 | 0.00 | 0.00 | 0.00 | 10 | 1018.3 |
| 20260830145048 | 77 | 270 | 0.0 | 5.0 | 0.00 | 0.00 | 0.00 | 10 | 1018.2 |
| 20260830144147 | 78 | 313 | 2.0 | 9.0 | 0.00 | 0.00 | 0.00 | 10 | 1018.3 |
| 20260830143247 | 80 | 318 | 1.0 | 10.0 | 0.00 | 0.00 | 0.00 | 10 | 1018.1 |
| 20260830142347 | 81 | 335 | 1.0 | 6.0 | 0.00 | 0.00 | 0.00 | 10 | 1018.2 |
| 20260830140547 | 82 | 287 | 2.0 | 8.0 | 0.00 | 0.00 | 0.00 | 10 | 1018.2 |
| 20260830135647 | 81 | 209 | 2.0 | 8.0 | 0.00 | 0.00 | 0.00 | 10 | 1018.3 |
| 20260830134748 | 79 | 285 | 1.0 | 4.0 | 0.00 | 0.00 | 0.00 | 10 | 1018.5 |
| 20260830133847 | 78 | 299 | 1.0 | 8.0 | 0.00 | 0.00 | 0.00 | 10 | 1018.4 |
| 20260830132947 | 80 | 314 | 2.0 | 8.0 | 0.00 | 0.00 | 0.00 | 10 | 1018.5 |
| 20260830131147 | 81 | 301 | 0.0 | 5.0 | 0.00 | 0.00 | 0.00 | 10 | 1018.5 |
| 20260830130247 | 81 | 277 | 3.0 | 5.0 | 0.00 | 0.00 | 0.00 | 10 | 1018.6 |
| 20260830125347 | 80 | 336 | 0.0 | 6.0 | 0.00 | 0.00 | 0.00 | 10 | 1018.7 |
| 20260830124447 | 81 | 275 | 2.0 | 8.0 | 0.00 | 0.00 | 0.00 | 10 | 1018.4 |
| 20260830123547 | 82 | 278 | 3.0 | 9.0 | 0.00 | 0.00 | 0.00 | 10 | 1018.6 |
| 20260830121747 | 82 | 247 | 1.0 | 9.0 | 0.00 | 0.00 | 0.00 | 10 | 1018.7 |
| 20260830120847 | 79 | 314 | 1.0 | 5.0 | 0.00 | 0.00 | 0.00 | 10 | 1018.6 |
| 20260830114147 | 80 | 281 | 1.0 | 6.0 | 0.00 | 0.00 | 0.00 | 10 | 1018.7 |
| 20260830113247 | 80 | 291 | 2.0 | 9.0 | 0.00 | 0.00 | 0.00 | 10 | 1018.7 |
| 20260830112347 | 79 | 303 | 3.0 | 7.0 | 0.00 | 0.00 | 0.00 | 10 | 1018.9 |
| 20260830110547 | 80 | 313 | 2.0 | 6.0 | 0.00 | 0.00 | 0.00 | 10 | 1018.8 |
| 20260830105647 | 80 | 260 | 2.0 | 7.0 | 0.00 | 0.00 | 0.00 | 10 | 1018.9 |
| 20260830104747 | 79 | 265 | 2.0 | 8.0 | 0.00 | 0.00 | 0.00 | 10 | 1018.9 |
| 20260830103847 | 78 | 311 | 1.0 | 8.0 | 0.00 | 0.00 | 0.00 | 11 | 1019.0 |
| 20260830102047 | 79 | 338 | 1.0 | 8.0 | 0.00 | 0.00 | 0.00 | 10 | 1019.2 |
| 20260830101147 | 79 | 294 | 2.0 | 7.0 | 0.00 | 0.00 | 0.00 | 10 | 1019.3 |
| 20260830100247 | 79 | 296 | 2.0 | 7.0 | 0.00 | 0.00 | 0.00 | 10 | 1019.2 |
| 20260830095347 | 81 | 318 | 2.0 | 7.0 | 0.00 | 0.00 | 0.00 | 10 | 1019.2 |
| 20260830094447 | 81 | 277 | 1.0 | 4.0 | 0.00 | 0.00 | 0.00 | 10 | 1019.3 |
| 20260830093547 | 79 | 301 | 2.0 | 7.0 | 0.00 | 0.00 | 0.00 | 10 | 1019.2 |
| 20260830092647 | 79 | 310 | 2.0 | 10.0 | 0.00 | 0.00 | 0.00 | 10 | 1019.3 |
| 20260830091747 | 78 | 284 | 2.0 | 7.0 | 0.00 | 0.00 | 0.00 | 10 | 1019.2 |
| 20260830090847 | 79 | 301 | 2.0 | 9.0 | 0.00 | 0.00 | 0.00 | 10 | 1019.3 |
| 20260830085947 | 79 | 318 | 2.0 | 5.0 | 0.00 | 0.00 | 0.00 | 10 | 1019.1 |
| 20260830085047 | 78 | 325 | 1.0 | 5.0 | 0.00 | 0.00 | 0.00 | 12 | 1019.3 |
| 20260830084147 | 78 | 282 | 1.0 | 8.0 | 0.00 | 0.00 | 0.00 | 11 | 1019.2 |
| 20260830083247 | 78 | 285 | 2.0 | 4.0 | 0.00 | 0.00 | 0.00 | 12 | 1019.1 |
| 20260830082347 | 77 | 302 | 2.0 | 6.0 | 0.00 | 0.00 | 0.00 | 16 | 1019.2 |
| 20260830081447 | 74 | 304 | 1.0 | 8.0 | 0.00 | 0.00 | 0.00 | 22 | 1019.3 |
| 20260830080547 | 71 | 300 | 0.0 | 4.0 | 0.00 | 0.00 | 0.00 | 26 | 1019.4 |
| 20260830075647 | 70 | 271 | 1.0 | 8.0 | 0.00 | 0.00 | 0.00 | 26 | 1019.4 |
| 20260830074747 | 69 | 275 | 2.0 | 7.0 | 0.00 | 0.00 | 0.00 | 25 | 1019.3 |
| 20260830073847 | 70 | 292 | 2.0 | 7.0 | 0.00 | 0.00 | 0.00 | 24 | 1019.2 |
| 20260830072947 | 70 | 309 | 0.0 | 7.0 | 0.00 | 0.00 | 0.00 | 22 | 1019.3 |
| 20260830072047 | 72 | 325 | 2.0 | 7.0 | 0.00 | 0.00 | 0.00 | 20 | 1019.4 |
| 20260830071147 | 74 | 294 | 1.0 | 5.0 | 0.00 | 0.00 | 0.00 | 18 | 1019.2 |
| 20260830070247 | 77 | 270 | 2.0 | 9.0 | 0.00 | 0.00 | 0.00 | 16 | 1019.1 |
| 20260830065347 | 76 | 293 | 1.0 | 4.0 | 0.00 | 0.00 | 0.00 | 21 | 1019.1 |
| 20260830064447 | 75 | 221 | 1.0 | 5.0 | 0.00 | 0.00 | 0.00 | 26 | 1019.0 |
| 20260830063547 | 73 | 284 | 0.0 | 4.0 | 0.00 | 0.00 | 0.00 | 38 | 1019.0 |
| 20260830062647 | 70 | 319 | 0.0 | 4.0 | 0.00 | 0.00 | 0.00 | 58 | 1019.1 |